Back to catalog

IRIDIUM 33 DEB

AlivePO
NORAD 33773·DEBRIS·🇺🇸 United States

Launched Sep 14, 1997 from Baikonur Cosmodrome

Loading…

Next Passes (next 24 hours)

TLE

FreshSource: Space-Track

Epoch: Sep 14, 2026, 09:23 UTC

1 33773U 97051L   26257.39159594  .00000529  00000-0  14976-3 0  9998
2 33773  86.3995 303.7592 0009656 331.4357  28.6314 14.43761757923245

Track IRIDIUM 33 DEB in real time with AllMySat

Download on the App Store